Weather observations for the past three days for
Calhoun Tom B. David Field Airport
Imperial (Metric)
Date Time (edt) Wind (mph) Vis. (mi.) Weather Sky Cond. Temperature (ºF) Relative Humidity Wind Chill (°F) Heat Index (°F) Pressure Precipitation (in)
Air Dwpt 6 hour altimeter (in) sea level (mb) 1 hr 3 hr 6 hr
Max. Min.
03 16:16 NW 7 7.00 Fair with Haze CLR 93.2 73.4 53% 103 29.99 0.0
03 15:53 Calm 9.00 A Few Clouds FEW065 FEW110 86 77 75% 97 30 0.0
03 15:35 E 9 G 16 10.00 Mostly Cloudy SCT065 BKN110 93.2 73.4 53% 103 30.01 0.0
03 15:15 Vrbl 3 10.00 Partly Cloudy SCT065 SCT075 98.6 71.6 42% 108 30 0.0
03 14:56 NE 3 10.00 A Few Clouds FEW065 FEW075 96.8 71.6 44% 105 30.01 0.0
03 14:37 Calm 10.00 Fair CLR 98.6 71.6 42% 108 30.01 0.0
03 14:10 NE 8 10.00 A Few Clouds FEW060 98.6 71.6 42% 108 30.03 0.0
03 13:55 N 6 10.00 Fair CLR 96.8 71.6 98.1 74.8 44% 105 30.03 0.0
03 13:35 N 8 10.00 Fair CLR 98.6 71.6 42% 108 30.04 0.0
03 13:14 Vrbl 6 10.00 Fair CLR 96.8 71.6 44% 105 30.05 0.0
03 12:54 Calm 10.00 Fair CLR 95 71.6 47% 103 30.05 0.0
03 12:35 Calm 10.00 Fair CLR 95 73.4 50% 105 30.06 0.0
03 12:15 N 3 10.00 Fair CLR 95 73.4 50% 105 30.07 0.0
03 11:55 NW 5 10.00 Fair CLR 93.2 75.2 56% 105 30.07 0.0
03 11:35 Calm 10.00 Fair CLR 93.2 75.2 56% 105 30.07 0.0
03 11:17 Calm 10.00 Fair CLR 89.6 73.4 59% 98 30.07 0.0
03 10:55 Vrbl 3 10.00 Fair CLR 89.6 75.2 63% 100 30.07 0.0
03 10:35 Calm 10.00 Fair CLR 87.8 73.4 62% 96 30.07 0.0
03 10:15 Calm 10.00 Fair CLR 86 73.4 66% 93 30.08 0.0
03 09:57 Calm 10.00 Fair CLR 86 73.4 66% 93 30.08 0.0
03 09:36 Calm 10.00 Fair CLR 84.2 73.4 70% 91 30.08 0.0
03 09:15 Calm 10.00 Fair CLR 82.4 73.4 74% 88 30.08 0.0
03 08:55 Calm 5.00 Fair with Haze CLR 80.6 73.4 79% 85 30.08 0.0
03 08:35 Calm 3.00 Fair with Haze CLR 78.8 71.6 79% 82 30.08 0.0
03 08:15 Calm 10.00 Fair CLR 77 71.6 83% 78 30.08 0.0
03 07:55 Calm 10.00 Fair CLR 75.2 69.8 77.7 73.9 83% 75 30.07 0.0
03 07:35 Calm 10.00 Fair CLR 73.4 69.8 89% 30.07 0.0
03 07:15 Calm 10.00 Fair CLR 75.2 69.8 83% 75 30.06 0.0
03 06:55 Calm 10.00 Fair CLR 75.2 69.8 83% 75 30.05 0.0
03 06:35 Calm 10.00 Fair CLR 75.2 71.6 89% 75 30.05 0.0
03 06:15 Calm 10.00 Fair CLR 75.2 71.6 89% 75 30.05 0.0
03 05:55 Calm 9.00 Fair CLR 75.2 71.6 89% 75 30.04 0.0
03 05:35 Calm 6.00 Fair with Haze CLR 75.2 71.6 89% 75 30.05 0.0
03 05:15 Calm 10.00 Fair CLR 75.2 69.8 83% 75 30.05 0.0
03 04:55 Calm 10.00 Fair CLR 75.2 71.6 89% 75 30.05 0.0
03 04:35 Calm 10.00 Fair CLR 75.2 71.6 89% 75 30.05 0.0
03 04:15 Calm 4.00 Fair with Haze CLR 77 71.6 83% 78 30.04 0.0
03 03:55 Calm 10.00 Fair CLR 77 71.6 83% 78 30.04 0.0
03 03:35 Calm 10.00 Fair CLR 77 71.6 83% 78 30.04 0.0
03 03:15 Calm 10.00 Fair CLR 75.2 71.6 89% 75 30.04 0.0
03 02:55 Calm 8.00 Fair CLR 77 71.6 83% 78 30.04 0.0
03 02:35 Calm 10.00 Fair CLR 77 71.6 83% 78 30.04 0.0
03 02:15 Calm 10.00 Fair CLR 77 71.6 83% 78 30.04 0.0
03 01:55 Calm 10.00 Fair CLR 77 71.6 89.8 77 83% 78 30.04 0.0
03 01:35 Calm 10.00 Fair CLR 77 71.6 83% 78 30.04 0.0
03 01:15 Calm 10.00 Fair CLR 78.8 71.6 79% 82 30.05 0.0
03 00:56 Calm 10.00 Fair CLR 80.6 73.4 79% 85 30.04 0.0
03 00:35 Calm 10.00 Fair CLR 78.8 73.4 84% 82 30.04 0.0
03 00:15 Calm 10.00 Fair CLR 78.8 71.6 79% 82 30.04 0.0
02 23:55 Calm 10.00 Fair CLR 78.8 71.6 79% 82 30.04 0.0
02 23:35 Calm 10.00 Fair CLR 78.8 71.6 79% 82 30.05 0.0
02 23:15 Calm 10.00 Fair CLR 80.6 73.4 79% 85 30.05 0.0
02 22:55 Calm 10.00 Fair CLR 80.6 73.4 79% 85 30.05 0.0
02 22:35 Calm 10.00 Fair CLR 80.6 73.4 79% 85 30.05 0.0
02 22:15 Calm 10.00 Fair CLR 82.4 73.4 74% 88 30.04 0.0
02 21:55 Calm 10.00 Fair CLR 82.4 73.4 74% 88 30.04 0.0
02 21:35 Calm 10.00 Fair CLR 82.4 73.4 74% 88 30.03 0.0
02 21:15 Calm 10.00 Fair CLR 82.4 73.4 74% 88 30.03 0.0
02 20:55 Calm 10.00 Fair CLR 86 73.4 66% 93 30.02 0.0
02 20:35 Calm 10.00 Fair CLR 86 73.4 66% 93 30.02 0.0
02 20:15 Calm 10.00 Fair CLR 87.8 73.4 62% 96 30.01 0.0
02 19:55 Calm 10.00 Fair CLR 89.6 71.6 99.7 89.8 55% 96 30.01 0.0
02 19:35 Calm 10.00 Fair CLR 91.4 73.4 56% 100 30.01 0.0
02 19:15 Calm 10.00 Fair CLR 95 73.4 50% 105 30.02 0.0
02 18:35 E 5 10.00 Fair CLR 96.8 69.8 42% 103 30.02 0.0
02 18:15 Calm 10.00 Fair CLR 98.6 69.8 39% 106 30.02 0.0
02 17:55 E 5 10.00 Fair CLR 98.6 68 37% 104 30.02 0.0
02 17:35 Vrbl 7 10.00 Fair CLR 98.6 68 37% 104 30.02 0.0
02 17:15 Vrbl 5 10.00 Fair CLR 98.6 68 37% 104 30.02 0.0
02 16:55 NE 5 10.00 Fair CLR 98.6 68 37% 104 30.03 0.0
02 16:35 NE 7 10.00 Fair CLR 98.6 68 37% 104 30.03 0.0
02 16:16 Calm 10.00 Fair CLR 98.6 69.8 39% 106 30.03 0.0
02 15:57 NE 3 10.00 A Few Clouds FEW080 98.6 69.8 39% 106 30.04 0.0
02 15:36 Calm 10.00 A Few Clouds FEW080 98.6 69.8 39% 106 30.05 0.0
02 15:17 SE 3 10.00 Fair CLR 98.6 71.6 42% 108 30.06 0.0
02 14:56 Calm 10.00 Fair CLR 96.8 68 39% 102 30.06 0.0
02 14:38 Vrbl 6 10.00 Fair CLR 96.8 69.8 42% 103 30.07 0.0
02 14:13 NE 5 10.00 Fair CLR 96.8 69.8 42% 103 30.08 0.0
02 13:53 NW 6 10.00 Fair CLR 96.8 71.6 44% 105 30.08 0.0
02 13:35 Vrbl 5 10.00 Fair CLR 95 71.6 47% 103 30.09 0.0
02 13:13 W 5 10.00 Fair CLR 95 71.6 47% 103 30.1 0.0
02 12:53 Calm 10.00 Fair CLR 93.2 71.6 50% 101 30.11 0.0
02 12:35 Vrbl 5 10.00 Fair CLR 93.2 73.4 53% 103 30.12 0.0
02 12:12 NW 5 10.00 Fair CLR 91.4 75.2 59% 103 30.13 0.0
02 11:56 Calm 10.00 Fair CLR 91.4 73.4 56% 100 30.13 0.0
02 11:37 Calm 10.00 Fair CLR 89.6 73.4 59% 98 30.13 0.0
02 11:17 Calm 10.00 Fair CLR 89.6 73.4 59% 98 30.14 0.0
02 10:55 Vrbl 3 10.00 Fair CLR 87.8 75.2 66% 98 30.13 0.0
02 10:35 Calm 10.00 Fair CLR 86 73.4 66% 93 30.13 0.0
02 10:14 Calm 10.00 Fair CLR 84.2 73.4 70% 91 30.13 0.0
02 09:55 Calm 10.00 Fair CLR 82.4 73.4 74% 88 30.13 0.0
02 09:36 Calm 10.00 Fair CLR 82.4 73.4 74% 88 30.14 0.0
02 09:16 Calm 10.00 Fair CLR 80.6 71.6 74% 85 30.14 0.0
02 08:55 Calm 10.00 Fair CLR 77 71.6 83% 78 30.13 0.0
02 08:35 Calm 10.00 Fair CLR 77 71.6 83% 78 30.13 0.0
02 08:15 Calm 10.00 Fair CLR 75.2 69.8 83% 75 30.12 0.0
02 07:55 Calm 10.00 Fair CLR 73.4 68 75.7 72.3 83% 30.12 0.0
02 07:35 Calm 10.00 Fair CLR 73.4 69.8 89% 30.11 0.0
02 07:15 Calm 10.00 Fair CLR 73.4 68 83% 30.11 0.0
02 06:55 Calm 10.00 Fair CLR 73.4 68 83% 30.1 0.0
02 06:35 Calm 10.00 Fair CLR 73.4 68 83% 30.1 0.0
02 06:15 Calm 10.00 Fair CLR 73.4 69.8 89% 30.09 0.0
02 05:55 Calm 10.00 Fair CLR 73.4 69.8 89% 30.09 0.0
02 05:35 Calm 10.00 Fair CLR 73.4 69.8 89% 30.08 0.0
02 05:15 Calm 10.00 Fair CLR 73.4 69.8 89% 30.08 0.0
02 04:55 Calm 10.00 Fair CLR 73.4 69.8 89% 30.08 0.0
02 04:35 Calm 10.00 Fair CLR 73.4 69.8 89% 30.07 0.0
02 04:15 Calm 10.00 Fair CLR 73.4 69.8 89% 30.07 0.0
02 03:55 Calm 10.00 Fair CLR 73.4 69.8 89% 30.07 0.0
02 03:35 Calm 10.00 Fair CLR 75.2 69.8 83% 75 30.06 0.0
02 03:15 Calm 10.00 Fair CLR 75.2 69.8 83% 75 30.06 0.0
02 02:55 Calm 10.00 Fair CLR 75.2 69.8 83% 75 30.07 0.0
02 02:35 Calm 10.00 Fair CLR 75.2 69.8 83% 75 30.07 0.0
02 02:15 Calm 10.00 Fair CLR 75.2 69.8 83% 75 30.07 0.0
02 01:55 Calm 10.00 Fair CLR 75.2 69.8 91 75.4 83% 75 30.07 0.0
02 01:35 Calm 10.00 Fair CLR 75.2 69.8 83% 75 30.07 0.0
02 01:15 Calm 10.00 Fair CLR 77 69.8 79% 79 30.07 0.0
02 00:55 Calm 10.00 Fair CLR 75.2 69.8 83% 75 30.08 0.0
02 00:35 Calm 10.00 Fair CLR 77 69.8 79% 79 30.07 0.0
02 00:15 Calm 10.00 Fair CLR 77 69.8 79% 79 30.08 0.0
01 23:55 Calm 10.00 Fair CLR 77 71.6 83% 78 30.08 0.0
01 23:35 Calm 10.00 Fair CLR 78.8 71.6 79% 82 30.07 0.0
01 23:15 Calm 10.00 Fair CLR 78.8 71.6 79% 82 30.08 0.0
01 22:55 Calm 10.00 Fair CLR 78.8 71.6 79% 82 30.08 0.0
01 22:35 Calm 10.00 Fair CLR 78.8 71.6 79% 82 30.08 0.0
01 22:15 Calm 10.00 Fair CLR 80.6 71.6 74% 85 30.07 0.0
01 21:55 Calm 10.00 Fair CLR 80.6 71.6 74% 85 30.07 0.0
01 21:35 Calm 10.00 Fair CLR 82.4 71.6 70% 87 30.06 0.0
01 21:15 Calm 10.00 Fair CLR 82.4 71.6 70% 87 30.06 0.0
01 20:55 Calm 10.00 Fair CLR 84.2 71.6 66% 90 30.05 0.0
01 20:35 Calm 10.00 Fair CLR 84.2 71.6 66% 90 30.05 0.0
01 20:15 Calm 10.00 Fair CLR 86 73.4 66% 93 30.05 0.0
01 19:55 Calm 10.00 Fair CLR 89.6 71.6 97 91 55% 96 30.05 0.0
01 19:35 Calm 10.00 Fair CLR 93.2 69.8 47% 99 30.05 0.0
01 19:15 Calm 10.00 Fair CLR 95 68 41% 100 30.05 0.0
01 18:55 Vrbl 3 10.00 Fair CLR 95 68 41% 100 30.05 0.0
01 18:35 NE 5 10.00 Fair CLR 95 68 41% 100 30.05 0.0
01 18:15 Vrbl 6 10.00 Fair CLR 96.8 68 39% 102 30.05 0.0
01 17:55 N 5 10.00 Fair CLR 95 68 41% 100 30.05 0.0
01 17:35 N 7 10.00 Fair CLR 96.8 68 39% 102 30.05 0.0
01 17:16 Calm 10.00 Fair CLR 95 68 41% 100 30.05 0.0
01 16:55 Calm 10.00 Fair CLR 96.8 68 39% 102 30.05 0.0
01 16:30 Vrbl 5 G 16 10.00 A Few Clouds FEW065 96.8 68 39% 102 30.06 0.0
01 16:17 Vrbl 3 10.00 Fair CLR 95 68 41% 100 30.07 0.0
01 15:52 N 7 10.00 A Few Clouds FEW060 96.8 69.8 42% 103 30.07 0.0
01 15:33 NE 5 10.00 Fair CLR 96.8 68 39% 102 30.08 0.0
01 15:15 NE 8 10.00 Fair CLR 96.8 68 39% 102 30.09 0.0
01 14:56 NE 8 10.00 Fair CLR 95 68 41% 100 30.1 0.0
01 14:36 NE 7 10.00 Fair CLR 95 69.8 44% 101 30.1 0.0
01 14:16 Vrbl 3 10.00 Fair CLR 93.2 69.8 47% 99 30.1 0.0
01 13:55 Vrbl 5 10.00 Fair CLR 93.2 69.8 93.9 72 47% 99 30.11 0.0
01 13:37 E 8 10.00 Fair CLR 93.2 69.8 47% 99 30.12 0.0
01 13:16 Vrbl 6 10.00 Fair CLR 93.2 69.8 47% 99 30.12 0.0
01 12:57 NW 6 10.00 Fair CLR 91.4 69.8 49% 97 30.13 0.0
01 12:36 N 3 10.00 Fair CLR 91.4 71.6 52% 99 30.14 0.0
01 12:13 Calm 10.00 Fair CLR 89.6 71.6 55% 96 30.15 0.0
01 11:55 Calm 10.00 Fair CLR 89.6 73.4 59% 98 30.15 0.0
01 11:37 Calm 10.00 Fair CLR 87.8 71.6 59% 94 30.16 0.0
01 11:16 Calm 10.00 Fair CLR 86 71.6 62% 92 30.16 0.0
01 10:57 N 3 10.00 Fair CLR 86 71.6 62% 92 30.16 0.0
01 10:37 Calm 10.00 Fair CLR 84.2 71.6 66% 90 30.16 0.0
01 10:17 Calm 10.00 Fair CLR 84.2 71.6 66% 90 30.16 0.0
01 09:55 N 5 10.00 Fair CLR 82.4 71.6 70% 87 30.16 0.0
01 09:37 NE 3 10.00 Fair CLR 80.6 71.6 74% 85 30.16 0.0
01 09:16 Calm 10.00 Fair CLR 78.8 71.6 79% 82 30.16 0.0
01 08:55 Calm 10.00 Fair CLR 77 69.8 79% 79 30.16 0.0
01 08:35 Calm 10.00 Fair CLR 75.2 69.8 83% 75 30.15 0.0
01 08:15 Calm 10.00 Fair CLR 73.4 69.8 89% 30.15 0.0
01 07:55 Calm 10.00 Fair CLR 71.6 68 74.8 71.4 88% 30.14 0.0
01 07:35 Calm 10.00 Fair CLR 71.6 68 88% 30.13 0.0
01 07:15 Calm 10.00 Fair CLR 71.6 68 88% 30.13 0.0
01 06:55 Calm 10.00 Fair CLR 71.6 68 88% 30.12 0.0
01 06:35 Calm 10.00 Fair CLR 71.6 68 88% 30.12 0.0
01 06:15 Calm 10.00 Fair CLR 73.4 68 83% 30.11 0.0
01 05:55 Calm 10.00 Fair CLR 71.6 68 88% 30.11 0.0
01 05:35 Calm 10.00 Fair CLR 71.6 68 88% 30.11 0.0
01 05:15 Calm 10.00 Fair CLR 71.6 68 88% 30.1 0.0
01 04:55 Calm 10.00 Fair CLR 71.6 68 88% 30.1 0.0
01 04:35 Calm 10.00 Fair CLR 73.4 68 83% 30.1 0.0
01 04:16 Calm 10.00 Fair CLR 71.6 68 88% 30.1 0.0
01 03:55 Calm 10.00 Fair CLR 73.4 68 83% 30.09 0.0
01 03:35 Calm 10.00 Fair CLR 73.4 68 83% 30.1 0.0
01 03:15 Calm 10.00 Fair CLR 73.4 69.8 89% 30.1 0.0
01 02:55 Calm 10.00 Fair CLR 73.4 69.8 89% 30.1 0.0
01 02:35 Calm 10.00 Fair CLR 73.4 69.8 89% 30.1 0.0
01 02:15 Calm 10.00 Fair CLR 75.2 69.8 83% 75 30.1 0.0
01 01:55 Calm 10.00 Fair CLR 75.2 69.8 87.6 74.1 83% 75 30.11 0.0
01 01:35 Calm 10.00 Fair CLR 75.2 69.8 83% 75 30.1 0.0
01 01:15 Calm 10.00 Fair CLR 75.2 69.8 83% 75 30.1 0.0
01 00:55 Calm 10.00 Fair CLR 75.2 69.8 83% 75 30.1 0.0
01 00:35 Calm 10.00 Fair CLR 75.2 69.8 83% 75 30.1 0.0
01 00:15 Calm 10.00 Fair CLR 75.2 69.8 83% 75 30.1 0.0
31 23:55 Calm 10.00 Fair CLR 77 69.8 79% 79 30.1 0.0
31 23:35 Calm 10.00 Fair CLR 77 69.8 79% 79 30.1 0.0
31 23:15 Calm 10.00 Fair CLR 77 69.8 79% 79 30.1 0.0
31 22:55 Calm 10.00 Fair CLR 77 69.8 79% 79 30.1 0.0
31 22:35 Calm 10.00 Fair CLR 78.8 69.8 74% 81 30.1 0.0
31 22:15 Calm 10.00 Fair CLR 78.8 69.8 74% 81 30.1 0.0
31 21:55 Calm 10.00 Fair CLR 78.8 69.8 74% 81 30.09 0.0
31 21:35 Calm 10.00 Fair CLR 80.6 69.8 70% 84 30.09 0.0
31 21:15 Calm 10.00 Fair CLR 80.6 71.6 74% 85 30.08 0.0
31 20:55 Calm 10.00 Fair CLR 80.6 71.6 74% 85 30.07 0.0
31 20:35 Calm 10.00 Fair CLR 82.4 69.8 66% 86 30.07 0.0
31 20:15 Calm 10.00 Fair CLR 84.2 71.6 66% 90 30.06 0.0
31 19:35 Calm 10.00 Fair CLR 89.6 71.6 55% 96 30.07 0.0
31 19:15 Calm 10.00 Fair CLR 93.2 68 44% 98 30.06 0.0
31 18:55 Calm 10.00 Fair CLR 93.2 68 44% 98 30.07 0.0
31 18:35 Calm 10.00 Fair CLR 93.2 66.2 41% 96 30.07 0.0
31 18:15 E 5 10.00 Fair CLR 93.2 66.2 41% 96 30.07 0.0
31 17:57 Calm 10.00 Fair CLR 95 66.2 39% 98 30.08 0.0
31 17:35 Calm 10.00 Fair CLR 93.2 68 44% 98 30.08 0.0
31 17:16 Vrbl 5 10.00 Fair CLR 95 66.2 39% 98 30.08 0.0
31 16:55 Calm 10.00 Fair CLR 95 68 41% 100 30.09 0.0
31 16:35 NE 5 10.00 Fair CLR 95 68 41% 100 30.09 0.0
Date Time (edt) Wind (mph) Vis. (mi.) Weather Sky Cond. Air Dwpt Max. Min. Relative Humidity Wind Chill (°F) Heat Index (°F) altimeter (in) sea level (mb) 1 hr 3 hr 6 hr
6 hour
Temperature (ºF) Pressure Precipitation (in)